[[{"header":{"parameterUnit":"m.s-1","parameterCategory":1,"la1":30.2991,"la2":30.254,"lo1":-89.0895,"lo2":-89.0444,"dy":0.0017,"dx":0.0017,"nx":28,"ny":28,"refTime":"2024-05-12T09:00:00:Z","depth":0,"parameterNumber":2,"parameterNumberName":"U-component_of_WINDS"},"data":[0,0,0,0,0,0,0,0,0,0,0,0,0,0,0,0,0,0,0,0,0,0,0,0,0,0,0,0,0,0,0,0,0,0,0,0,0,0,0,0,0,0,0,0,0,0,0,0,0,0,0,0,0,0,0,0,0,0,-4.3468,-4.3467,0,-4.343,-4.3429,-4.3429,-4.3283,-4.328,-4.3276,-4.3273,-4.3237,-4.324,-4.3242,0,0,0,0,0,0,0,0,0,0,0,0,0,-4.3417,-4.3419,-4.3468,-4.3467,-4.3467,-4.343,-4.3429,-4.3429,-4.3284,-4.328,-4.3276,-4.3272,-4.3237,-4.3239,-4.3242,0,0,0,0,0,0,0,0,0,0,0,0,0,-4.3415,-4.3419,-4.3468,-4.339,-4.3382,-4.343,-4.3429,-4.3429,-4.3285,-4.3279,-4.3274,-4.327,-4.3236,-4.3239,-4.3242,-4.3363,0,0,-4.3252,-4.3254,0,0,0,0,0,0,0,0,-4.3416,-4.3417,-4.3402,-4.3395,-4.3387,-4.3356,-4.3398,-4.3407,-4.3286,-4.3322,-4.3273,-4.3267,-4.3281,-4.328,-4.3284,-4.3361,-4.336,-4.3253,-4.3254,-4.3256,-4.3257,0,0,0,0,0,0,0,-4.3416,-4.3418,-4.3453,-4.3402,-4.3393,-4.3358,-4.3352,-4.3399,-4.333,-4.3318,-4.3308,-4.3305,-4.3276,-4.3282,-4.3283,-4.3359,-4.3252,-4.3255,-4.3257,-4.3259,-4.3535,-4.354,0,0,0,0,0,0,-4.3427,-4.3419,-4.3454,-4.3452,-4.3389,-4.3363,-4.3356,-4.3371,-4.3329,-4.3318,-4.3309,-4.3298,-4.3279,-4.3279,-4.3281,-4.342,-4.3256,-4.3259,-4.3261,-4.353,-4.3536,-4.3542,0,0,0,0,0,0,-4.3426,-4.3431,-4.3455,-4.3432,-4.3433,-4.3369,-4.3387,-4.3373,-4.3378,-4.3322,-4.331,-4.3327,-4.3275,-4.3276,-4.3344,-4.3417,-4.326,-4.3263,-4.3523,-4.3532,-4.3539,-4.37,0,0,0,0,0,0,-4.3425,-4.3432,-4.3476,-4.3435,-4.3435,-4.3519,-4.3391,-4.3376,-4.3384,-4.3369,-4.3336,-4.3326,-4.3271,-4.334,-4.3347,-4.3419,-4.3266,-4.3517,-4.3527,-4.3537,-4.3688,-4.3713,-4.3734,0,0,0,0,0,-4.3424,-4.3523,-4.3479,-4.3484,-4.3489,-4.3523,-4.3523,-4.3457,-4.339,-4.3435,-4.34,-4.3327,-4.3408,-4.3348,-4.3355,-4.3429,-4.3512,-4.3524,-4.3536,-4.3678,-4.3708,-4.3734,0,0,0,0,0,0,-4.3576,-4.3517,-4.3467,-4.3556,-4.3546,-4.3498,-4.3553,-4.3491,-4.35,-4.3486,-4.3405,-4.3399,-4.3479,-4.346,-4.3394,-4.3544,-4.3448,-4.3462,-4.3553,-4.3582,-4.3604,-4.3607,-4.3269,0,0,0,0,0,-4.362,-4.3652,-4.3598,-4.3682,-4.3679,-4.3618,-4.363,-4.358,-4.3567,-4.3562,-4.3531,-4.3522,-4.3545,-4.3562,-4.358,-4.3685,-4.3676,-4.3739,-4.3762,-4.3781,-4.3795,-4.385,-4.3878,-4.3582,-4.3582,-4.3582,0,0,-4.3711,-4.3682,-4.3708,-4.3712,-4.3698,-4.3734,-4.3615,-4.3658,-4.3684,-4.3568,-4.363,-4.3608,-4.3592,-4.368,-4.3716,-4.3667,-4.3875,-4.3797,-4.3812,-4.3815,-4.3866,-4.3894,-4.3919,-4.359,-4.3589,-4.3587,0,0,-4.3895,-4.3876,-4.3944,-4.3933,-4.3914,-4.3872,-4.3889,-4.3851,-4.3832,-4.3893,-4.3807,-4.3838,-4.3879,-4.3872,-4.3874,-4.4057,-4.3991,-4.4065,-4.4185,-4.424,-4.4264,-4.4284,-4.4351,-4.4375,-4.4078,-4.4079,-4.4079,0,-4.4011,-4.4061,-4.3987,-4.4036,-4.4041,-4.3938,-4.4007,-4.4,-4.3988,-4.3995,-4.3939,-4.3989,-4.3971,-4.4056,-4.4101,-4.4106,-4.4123,-4.4069,-4.4266,-4.4286,-4.4304,-4.4366,-4.4392,-4.4088,-4.4087,-4.4086,-4.4085,0,-4.4205,-4.4241,-4.4299,-4.429,-4.4301,-4.436,-4.4297,-4.4317,-4.4267,-4.4232,-4.4296,-4.4271,-4.4283,-4.4299,-4.425,-4.4377,-4.4347,-4.428,-4.4182,-4.4342,-4.44,-4.4423,-4.4101,-4.4098,-4.4095,-4.4093,0,0,-4.4484,-4.4434,-4.4456,-4.4451,-4.4423,-4.445,-4.4505,-4.4516,-4.4536,-4.4532,-4.4577,-4.4615,-4.4553,-4.4555,-4.4504,-4.4553,-4.4701,-4.4479,-4.4478,-4.4523,-4.4842,-4.4894,-4.4923,-4.4657,-4.4661,-4.4665,-4.4844,0,-4.4661,-4.475,-4.4686,-4.4788,-4.4821,-4.4724,-4.4772,-4.4761,-4.473,-4.4754,-4.472,-4.4749,-4.4664,-4.4665,-4.4708,-4.4674,-4.4765,-4.466,-4.47,-4.4702,-4.4708,-4.4952,-4.5006,-4.5177,-4.4866,-4.4869,-4.4872,0,-4.4878,-4.4883,-4.4988,-4.4954,-4.4966,-4.501,-4.5015,-4.504,-4.5026,-4.4999,-4.5003,-4.494,-4.4993,-4.4896,-4.4969,-4.4899,-4.4912,-4.4898,-4.4903,-4.4905,-4.4798,-4.4962,-4.5229,-4.5255,-4.4907,-4.4904,-4.4901,0,-4.5073,-4.5106,-4.5173,-4.5172,-4.5133,-4.5167,-4.5153,-4.5133,-4.5144,-4.515,-4.5156,-4.5168,-4.5175,-4.5187,-4.513,-4.5064,-4.5211,-4.5108,-4.5192,-4.5194,-4.5228,-4.5226,-4.5502,-4.5235,-4.5234,-4.5234,-4.5233,0,-4.5277,-4.5346,-4.526,-4.5302,-4.5376,-4.5302,-4.5378,-4.5353,-4.5337,-4.5373,-4.529,-4.5326,-4.5248,-4.5276,-4.5232,-4.53,-4.5303,-4.5285,-4.5272,-4.5293,-4.5296,-4.5301,-4.5288,-4.524,-4.5239,-4.5238,-4.5236,0,-4.5507,-4.5453,-4.552,-4.5478,-4.5469,-4.5526,-4.549,-4.5528,-4.5491,-4.5538,-4.5545,-4.5488,-4.5517,-4.5461,-4.5483,-4.5453,-4.5549,-4.5518,-4.5554,-4.5545,-4.5633,-4.5626,-4.5921,-4.5957,-4.5667,-4.5669,-4.5672,0,-4.5642,-4.5692,-4.5656,-4.5673,-4.5664,-4.5693,-4.5704,-4.5634,-4.5649,-4.5638,-4.5677,-4.5699,-4.5713,-4.5765,-4.5726,-4.5743,-4.5712,-4.5815,-4.5714,-4.5734,-4.5715,-4.5713,-4.5719,-4.5836,-4.5839,-4.5842,-4.5844,0,-4.5887,-4.5857,-4.5876,-4.5886,-4.5901,-4.5906,-4.5904,-4.5924,-4.585,-4.5871,-4.59,-4.5911,-4.5933,-4.5957,-4.5965,-4.5951,-4.5887,-4.5876,-4.5897,-4.5919,-4.5938,-4.593,-4.5612,-4.587,-4.5867,-4.5866,-4.5864,-4.5863,-4.6073,-4.6114,-4.6095,-4.6119,-4.6111,-4.6112,-4.6145,-4.6113,-4.6135,-4.6147,-4.6105,-4.6144,-4.6129,-4.6133,-4.6127,-4.6157,-4.6111,-4.6141,-4.6148,-4.6157,-4.6171,-4.5933,-4.6158,-4.6157,-4.6156,-4.6156,-4.6155,0,-4.6315,-4.6298,-4.6321,-4.6321,-4.6341,-4.6277,-4.6273,-4.6294,-4.6329,-4.632,-4.6336,-4.637,-4.6392,-4.6356,-4.6373,-4.6405,-4.6376,-4.6412,-4.6409,-4.6408,-4.6211,-4.6192,-4.6435,-4.6435,-4.6435,-4.6435,-4.6435,-4.6435,-4.6443,-4.6509,-4.6478,-4.6539,-4.6521,-4.6558,-4.6562,-4.6563,-4.6556,-4.6597,-4.6615,-4.6591,-4.6572,-4.6587,-4.6606,-4.6595,-4.6606,-4.6653,-4.6632,-4.6449,-4.6421,-4.6395,-4.6377,-4.6655,-4.6656,-4.6826,-4.6828,-4.6829]},{"header":{"parameterUnit":"m.s-1","parameterCategory":1,"la1":30.2991,"la2":30.254,"lo1":-89.0895,"lo2":-89.0444,"dy":0.0017,"dx":0.0017,"nx":28,"ny":28,"refTime":"2024-05-12T09:00:00:Z","depth":0,"parameterNumber":3,"parameterNumberName":"V-component_of_WINDS"},"data":[0,0,0,0,0,0,0,0,0,0,0,0,0,0,0,0,0,0,0,0,0,0,0,0,0,0,0,0,0,0,0,0,0,0,0,0,0,0,0,0,0,0,0,0,0,0,0,0,0,0,0,0,0,0,0,0,0,0,-0.2703,-0.2703,0,-0.2674,-0.2673,-0.2673,-0.2638,-0.2637,-0.2636,-0.2636,-0.2607,-0.2606,-0.2606,0,0,0,0,0,0,0,0,0,0,0,0,0,-0.2727,-0.2727,-0.2703,-0.2703,-0.2702,-0.2674,-0.2673,-0.2673,-0.2638,-0.2637,-0.2636,-0.2636,-0.2607,-0.2606,-0.2606,0,0,0,0,0,0,0,0,0,0,0,0,0,-0.2709,-0.2727,-0.2703,-0.2681,-0.2679,-0.2674,-0.2673,-0.2673,-0.2638,-0.2637,-0.2636,-0.2635,-0.2607,-0.2606,-0.2606,-0.262,0,0,-0.2605,-0.2605,0,0,0,0,0,0,0,0,-0.271,-0.2708,-0.2685,-0.2683,-0.268,-0.2658,-0.2671,-0.2655,-0.2638,-0.2653,-0.2636,-0.2635,-0.2625,-0.2623,-0.2619,-0.2619,-0.2618,-0.2605,-0.2604,-0.2604,-0.2604,0,0,0,0,0,0,0,-0.2712,-0.2709,-0.2691,-0.2684,-0.2682,-0.2672,-0.2669,-0.2668,-0.2644,-0.2652,-0.2649,-0.2646,-0.2623,-0.2619,-0.2618,-0.2617,-0.2605,-0.2604,-0.2604,-0.2604,-0.2625,-0.2626,0,0,0,0,0,0,-0.2716,-0.2711,-0.2692,-0.2691,-0.2693,-0.2673,-0.2669,-0.2666,-0.2644,-0.264,-0.2647,-0.2645,-0.2621,-0.2619,-0.2617,-0.2631,-0.2604,-0.2604,-0.2604,-0.2624,-0.2625,-0.2626,0,0,0,0,0,0,-0.2717,-0.2715,-0.2694,-0.27,-0.2696,-0.2673,-0.2671,-0.2666,-0.2662,-0.264,-0.2636,-0.2648,-0.262,-0.2617,-0.2619,-0.2629,-0.2604,-0.2603,-0.2623,-0.2625,-0.2626,-0.266,0,0,0,0,0,0,-0.2718,-0.2715,-0.2721,-0.27,-0.2696,-0.2697,-0.2671,-0.2666,-0.2662,-0.2659,-0.264,-0.2636,-0.2619,-0.262,-0.2619,-0.2628,-0.2603,-0.2622,-0.2624,-0.2625,-0.2658,-0.2662,-0.2666,0,0,0,0,0,-0.2719,-0.2732,-0.2721,-0.2719,-0.2703,-0.2698,-0.2695,-0.2675,-0.2663,-0.2668,-0.2653,-0.2636,-0.2628,-0.262,-0.2619,-0.2629,-0.2622,-0.2624,-0.2625,-0.2656,-0.2661,-0.2666,0,0,0,0,0,0,-0.2755,-0.2729,-0.2717,-0.2724,-0.2713,-0.2692,-0.2698,-0.2682,-0.2675,-0.2672,-0.2648,-0.2644,-0.2648,-0.2638,-0.263,-0.264,-0.2622,-0.2624,-0.2646,-0.2651,-0.2655,-0.2657,-0.2603,0,0,0,0,0,-0.2764,-0.2762,-0.2739,-0.2748,-0.2743,-0.2721,-0.2718,-0.2704,-0.2692,-0.2687,-0.2672,-0.2661,-0.2656,-0.2653,-0.2647,-0.2656,-0.2651,-0.2662,-0.2666,-0.2669,-0.2671,-0.2673,-0.2677,-0.2632,-0.2632,-0.2632,0,0,-0.2783,-0.2768,-0.2769,-0.2755,-0.2745,-0.2743,-0.2718,-0.2717,-0.2715,-0.2687,-0.2687,-0.2676,-0.2662,-0.2667,-0.2668,-0.2659,-0.2682,-0.2671,-0.2674,-0.2674,-0.2675,-0.268,-0.2683,-0.2633,-0.2633,-0.2633,0,0,-0.2815,-0.2805,-0.281,-0.28,-0.2784,-0.2769,-0.277,-0.2751,-0.2742,-0.2742,-0.272,-0.2717,-0.2709,-0.2699,-0.2693,-0.2719,-0.2703,-0.2718,-0.2739,-0.2742,-0.2745,-0.2748,-0.2757,-0.276,-0.272,-0.272,-0.272,0,-0.284,-0.2837,-0.2815,-0.2815,-0.2809,-0.2782,-0.2787,-0.2778,-0.2762,-0.2758,-0.2747,-0.2735,-0.2724,-0.2725,-0.2732,-0.2728,-0.2728,-0.272,-0.2747,-0.2749,-0.2752,-0.276,-0.2763,-0.2722,-0.2722,-0.2721,-0.2721,0,-0.2868,-0.2865,-0.2871,-0.2855,-0.285,-0.2852,-0.283,-0.2827,-0.2813,-0.2798,-0.2798,-0.2783,-0.2773,-0.2772,-0.2758,-0.2771,-0.2765,-0.2751,-0.2733,-0.2758,-0.2765,-0.2768,-0.2724,-0.2724,-0.2723,-0.2723,0,0,-0.2924,-0.2894,-0.2896,-0.2888,-0.2868,-0.2865,-0.2866,-0.2855,-0.2853,-0.2842,-0.2841,-0.2834,-0.282,-0.2813,-0.2798,-0.28,-0.282,-0.2785,-0.2785,-0.2792,-0.2832,-0.2842,-0.2846,-0.2809,-0.281,-0.281,-0.2833,0,-0.2952,-0.2951,-0.2931,-0.2936,-0.2932,-0.2906,-0.2906,-0.2894,-0.288,-0.2875,-0.286,-0.2854,-0.2837,-0.2832,-0.2834,-0.2818,-0.2828,-0.2816,-0.2808,-0.2808,-0.2812,-0.285,-0.2861,-0.2883,-0.2835,-0.2836,-0.2836,0,-0.2985,-0.2975,-0.298,-0.2958,-0.2956,-0.2956,-0.2944,-0.294,-0.2924,-0.2914,-0.2905,-0.2887,-0.2885,-0.2868,-0.2865,-0.2857,-0.2852,-0.2843,-0.2844,-0.2842,-0.2823,-0.2849,-0.289,-0.2893,-0.284,-0.284,-0.284,0,-0.3024,-0.3012,-0.3013,-0.3006,-0.2981,-0.2982,-0.2972,-0.2955,-0.295,-0.2939,-0.2935,-0.2924,-0.2918,-0.291,-0.2889,-0.2878,-0.2887,-0.2868,-0.2878,-0.2878,-0.2881,-0.2881,-0.2922,-0.2879,-0.2879,-0.2879,-0.2879,0,-0.3058,-0.3062,-0.303,-0.303,-0.3033,-0.3008,-0.3012,-0.2999,-0.2984,-0.2981,-0.2957,-0.2955,-0.2928,-0.2922,-0.2905,-0.2904,-0.2902,-0.2893,-0.2888,-0.2895,-0.2896,-0.2891,-0.2889,-0.288,-0.2879,-0.2879,-0.2879,0,-0.3103,-0.3081,-0.308,-0.3056,-0.305,-0.3053,-0.3031,-0.303,-0.3015,-0.3011,-0.3008,-0.2984,-0.2975,-0.2954,-0.294,-0.2929,-0.2932,-0.2924,-0.2937,-0.2934,-0.2944,-0.2943,-0.2983,-0.2986,-0.2942,-0.2943,-0.2943,0,-0.3125,-0.3127,-0.3102,-0.3098,-0.3089,-0.3083,-0.3076,-0.3052,-0.3046,-0.3028,-0.3029,-0.3018,-0.3008,-0.2996,-0.2977,-0.2966,-0.2957,-0.2971,-0.2955,-0.2961,-0.2956,-0.2956,-0.2955,-0.2975,-0.2976,-0.2976,-0.2977,0,-0.3167,-0.3156,-0.3148,-0.3136,-0.3129,-0.3118,-0.3106,-0.3104,-0.3076,-0.3071,-0.3061,-0.3054,-0.3039,-0.3028,-0.3014,-0.3002,-0.2985,-0.2982,-0.2983,-0.2989,-0.2996,-0.2992,-0.2946,-0.2981,-0.2981,-0.298,-0.298,-0.298,-0.3201,-0.32,-0.3183,-0.3174,-0.3162,-0.3151,-0.3148,-0.3131,-0.3123,-0.3109,-0.3095,-0.3087,-0.3069,-0.3048,-0.3037,-0.303,-0.3021,-0.3024,-0.3024,-0.3025,-0.3027,-0.2998,-0.3028,-0.3027,-0.3027,-0.3027,-0.3027,0,-0.3241,-0.3227,-0.3219,-0.3203,-0.3195,-0.3179,-0.3164,-0.3159,-0.3152,-0.3137,-0.3128,-0.3116,-0.3106,-0.3085,-0.3072,-0.307,-0.3061,-0.3067,-0.3067,-0.3064,-0.3036,-0.3036,-0.3074,-0.3074,-0.3074,-0.3074,-0.3074,-0.3074,-0.326,-0.3259,-0.3245,-0.3237,-0.3224,-0.3215,-0.3208,-0.3197,-0.3185,-0.3173,-0.3164,-0.315,-0.3132,-0.3118,-0.3107,-0.3101,-0.3097,-0.3105,-0.3097,-0.3071,-0.3067,-0.3062,-0.3062,-0.3105,-0.3105,-0.3125,-0.3125,-0.3125]}]]